Stündliche Wetter Bolshie Shady

Heute, 16 Januar, Samstag

Zeit Temperatur Niederschläge Wind Luftdruck Luftfeuchtigkeit
00:00 -12°C° 0 mm 2 m/S 746 mmHg 91%
01:00 -12°C° 0 mm 2 m/S 745 mmHg 91%
02:00 -10°C° 0.3 mm 2 m/S 744 mmHg 91%
03:00 -10°C° 0.3 mm 3 m/S 743 mmHg 91%
04:00 -10°C° 0.3 mm 3 m/S 743 mmHg 92%
05:00 -10°C° 0 mm 3 m/S 742 mmHg 91%
06:00 -10°C° 0 mm 3 m/S 741 mmHg 90%
07:00 -10°C° 0 mm 3 m/S 740 mmHg 89%
08:00 -11°C° 0.1 mm 4 m/S 740 mmHg 90%
09:00 -10°C° 0.1 mm 4 m/S 739 mmHg 91%
10:00 -10°C° 0.1 mm 4 m/S 739 mmHg 93%
11:00 -10°C° 0.3 mm 5 m/S 739 mmHg 93%
12:00 -9°C° 0.3 mm 6 m/S 738 mmHg 93%
13:00 -6°C° 0.3 mm 6 m/S 738 mmHg 94%
14:00 -6°C° 0.1 mm 6 m/S 738 mmHg 92%
15:00 -7°C° 0.1 mm 7 m/S 738 mmHg 91%
16:00 -7°C° 0.1 mm 7 m/S 739 mmHg 90%
17:00 -9°C° 0 mm 7 m/S 739 mmHg 89%
18:00 -12°C° 0 mm 7 m/S 739 mmHg 88%
19:00 -14°C° 0 mm 7 m/S 740 mmHg 88%
20:00 -15°C° 0 mm 7 m/S 740 mmHg 88%
21:00 -15°C° 0 mm 7 m/S 740 mmHg 89%
22:00 -17°C° 0 mm 7 m/S 741 mmHg 90%
23:00 -15°C° 0 mm 7 m/S 740 mmHg 90%

Morgen, 17 Januar, Sonntag

Zeit Temperatur Niederschläge Wind Luftdruck Luftfeuchtigkeit
00:00 -14°C° 0 mm 7 m/S 740 mmHg 90%
01:00 -15°C° 0 mm 8 m/S 739 mmHg 90%
02:00 -13°C° 0.3 mm 8 m/S 739 mmHg 91%
03:00 -13°C° 0.3 mm 8 m/S 738 mmHg 92%
04:00 -12°C° 0.3 mm 7 m/S 738 mmHg 93%
05:00 -14°C° 0.4 mm 7 m/S 738 mmHg 92%
06:00 -15°C° 0.4 mm 7 m/S 738 mmHg 91%
07:00 -17°C° 0.4 mm 7 m/S 738 mmHg 90%
08:00 -18°C° 0.2 mm 7 m/S 738 mmHg 91%
09:00 -18°C° 0.2 mm 7 m/S 739 mmHg 91%
10:00 -19°C° 0.2 mm 7 m/S 740 mmHg 92%
11:00 -19°C° 0.2 mm 7 m/S 741 mmHg 92%
12:00 -19°C° 0.2 mm 7 m/S 741 mmHg 91%
13:00 -19°C° 0.2 mm 7 m/S 742 mmHg 91%
14:00 -20°C° 0.1 mm 7 m/S 743 mmHg 92%
15:00 -20°C° 0.1 mm 6 m/S 743 mmHg 92%
16:00 -20°C° 0.1 mm 5 m/S 744 mmHg 92%
17:00 -20°C° 0.1 mm 5 m/S 745 mmHg 93%
18:00 -20°C° 0.1 mm 4 m/S 746 mmHg 94%
19:00 -20°C° 0.1 mm 4 m/S 746 mmHg 94%
20:00 -22°C° 0 mm 4 m/S 747 mmHg 95%
21:00 -22°C° 0 mm 3 m/S 747 mmHg 96%
22:00 -23°C° 0 mm 3 m/S 748 mmHg 97%
23:00 -24°C° 0 mm 3 m/S 748 mmHg 98%

übermorgen, 18 Januar, Montag

Zeit Temperatur Niederschläge Wind Luftdruck Luftfeuchtigkeit
00:00 -25°C° 0 mm 3 m/S 749 mmHg 98%
01:00 -26°C° 0 mm 3 m/S 749 mmHg 98%
02:00 -25°C° 0 mm 2 m/S 750 mmHg 99%
03:00 -26°C° 0 mm 2 m/S 750 mmHg 99%
04:00 -26°C° 0 mm 2 m/S 750 mmHg 99%
05:00 -27°C° 0 mm 2 m/S 750 mmHg 99%
06:00 -27°C° 0 mm 2 m/S 751 mmHg 99%
07:00 -28°C° 0 mm 2 m/S 751 mmHg 99%
08:00 -28°C° 0 mm 2 m/S 751 mmHg 99%
09:00 -28°C° 0 mm 2 m/S 751 mmHg 98%
10:00 -25°C° 0 mm 1 m/S 752 mmHg 98%
11:00 -24°C° 0 mm 1 m/S 752 mmHg 97%
12:00 -23°C° 0 mm 1 m/S 752 mmHg 96%
13:00 -22°C° 0 mm 1 m/S 752 mmHg 95%
14:00 -23°C° 0 mm 1 m/S 752 mmHg 96%
15:00 -24°C° 0 mm 0 m/S 752 mmHg 97%
16:00 -25°C° 0 mm 0 m/S 752 mmHg 98%
17:00 -25°C° 0 mm 0 m/S 752 mmHg 99%
18:00 -26°C° 0 mm 0 m/S 752 mmHg 99%
19:00 -26°C° 0 mm 0 m/S 752 mmHg 99%
20:00 -26°C° 0 mm 0 m/S 752 mmHg 98%
21:00 -25°C° 0 mm 1 m/S 752 mmHg 97%
22:00 -25°C° 0 mm 1 m/S 752 mmHg 96%
23:00 -24°C° 0 mm 1 m/S 751 mmHg 96%

19 Januar, Dienstag

Zeit Temperatur Niederschläge Wind Luftdruck Luftfeuchtigkeit
00:00 -27°C° 0 mm 2 m/S 751 mmHg 95%
01:00 -27°C° 0 mm 2 m/S 751 mmHg 95%
02:00 -26°C° 0 mm 2 m/S 751 mmHg 95%
03:00 -27°C° 0 mm 3 m/S 751 mmHg 94%
04:00 -26°C° 0 mm 3 m/S 751 mmHg 94%
05:00 -26°C° 0 mm 4 m/S 750 mmHg 92%
06:00 -25°C° 0 mm 4 m/S 750 mmHg 91%
07:00 -25°C° 0 mm 5 m/S 750 mmHg 89%
08:00 -24°C° 0 mm 5 m/S 750 mmHg 88%
09:00 -24°C° 0 mm 5 m/S 749 mmHg 87%
10:00 -22°C° 0 mm 5 m/S 749 mmHg 85%
11:00 -21°C° 0 mm 5 m/S 749 mmHg 86%
12:00 -22°C° 0 mm 6 m/S 748 mmHg 87%
13:00 -21°C° 0 mm 6 m/S 748 mmHg 88%
14:00 -21°C° 0 mm 6 m/S 747 mmHg 87%
15:00 -20°C° 0 mm 6 m/S 747 mmHg 86%
16:00 -20°C° 0 mm 6 m/S 747 mmHg 85%
17:00 -18°C° 0.1 mm 6 m/S 747 mmHg 87%
18:00 -18°C° 0.1 mm 6 m/S 747 mmHg 89%
19:00 -18°C° 0.1 mm 6 m/S 747 mmHg 91%
20:00 -18°C° 0.4 mm 6 m/S 747 mmHg 92%
21:00 -18°C° 0.4 mm 6 m/S 747 mmHg 93%
22:00 -18°C° 0.4 mm 6 m/S 747 mmHg 93%
23:00 -18°C° 0.4 mm 6 m/S 747 mmHg 93%

20 Januar, Mittwoch

Zeit Temperatur Niederschläge Wind Luftdruck Luftfeuchtigkeit
00:00 -19°C° 0.4 mm 5 m/S 748 mmHg 94%
01:00 -19°C° 0.4 mm 5 m/S 748 mmHg 94%
02:00 -19°C° 0.2 mm 5 m/S 748 mmHg 94%
03:00 -20°C° 0.2 mm 5 m/S 748 mmHg 94%
04:00 -19°C° 0.2 mm 4 m/S 749 mmHg 94%
05:00 -19°C° 0.1 mm 4 m/S 749 mmHg 93%
06:00 -20°C° 0.1 mm 4 m/S 750 mmHg 93%
07:00 -20°C° 0.1 mm 4 m/S 750 mmHg 92%
08:00 -20°C° 0 mm 4 m/S 751 mmHg 92%
09:00 -20°C° 0 mm 4 m/S 751 mmHg 91%
10:00 -22°C° 0 mm 4 m/S 752 mmHg 91%
11:00 -19°C° 0 mm 3 m/S 752 mmHg 90%
12:00 -19°C° 0 mm 3 m/S 753 mmHg 90%
13:00 -19°C° 0 mm 3 m/S 753 mmHg 90%
14:00 -21°C° 0 mm 3 m/S 753 mmHg 91%
15:00 -19°C° 0 mm 2 m/S 753 mmHg 92%
16:00 -20°C° 0 mm 2 m/S 754 mmHg 93%
17:00 -21°C° 0 mm 2 m/S 754 mmHg 94%
18:00 -23°C° 0 mm 2 m/S 755 mmHg 94%
19:00 -25°C° 0 mm 2 m/S 755 mmHg 95%
20:00 -22°C° 0 mm 1 m/S 755 mmHg 95%
21:00 -23°C° 0 mm 1 m/S 756 mmHg 96%
22:00 -24°C° 0 mm 1 m/S 756 mmHg 96%
23:00 -24°C° 0 mm 0 m/S 756 mmHg 97%

21 Januar, Donnerstag

Zeit Temperatur Niederschläge Wind Luftdruck Luftfeuchtigkeit
00:00 -25°C° 0 mm 0 m/S 756 mmHg 98%
01:00 -25°C° 0 mm 0 m/S 756 mmHg 99%
02:00 -26°C° 0 mm 0 m/S 757 mmHg 99%
03:00 -26°C° 0 mm 0 m/S 757 mmHg 99%
04:00 -26°C° 0 mm 0 m/S 757 mmHg 99%
05:00 -26°C° 0 mm 0 m/S 757 mmHg 99%
06:00 -27°C° 0 mm 1 m/S 757 mmHg 99%
07:00 -27°C° 0 mm 1 m/S 757 mmHg 99%
08:00 -27°C° 0 mm 1 m/S 757 mmHg 99%
09:00 -25°C° 0 mm 1 m/S 757 mmHg 98%
10:00 -27°C° 0 mm 2 m/S 757 mmHg 98%
11:00 -26°C° 0 mm 2 m/S 757 mmHg 97%
12:00 -25°C° 0 mm 2 m/S 757 mmHg 96%
13:00 -25°C° 0 mm 3 m/S 757 mmHg 95%
14:00 -24°C° 0 mm 3 m/S 757 mmHg 95%
15:00 -24°C° 0 mm 3 m/S 756 mmHg 95%
16:00 -25°C° 0 mm 4 m/S 756 mmHg 94%
17:00 -25°C° 0 mm 4 m/S 756 mmHg 94%
18:00 -24°C° 0 mm 4 m/S 756 mmHg 93%
19:00 -25°C° 0 mm 5 m/S 755 mmHg 93%
20:00 -25°C° 0 mm 5 m/S 755 mmHg 93%
21:00 -25°C° 0 mm 5 m/S 754 mmHg 92%
22:00 -24°C° 0 mm 6 m/S 754 mmHg 92%
23:00 -24°C° 0.3 mm 5 m/S 753 mmHg 93%
Mehr zeigen

Wir brauchen deine Erlaubnis

Meteoprog und unser Service Anbieter werden persönliche Daten aufbewahren, so wie Cookies, Geräte Bezeichnung oder ähnliche Technologien von deinem Gerät und Prozess, so wie Persönliche Daten Inhalte und Werbungen, genauso wie social Media und den Verkehr zu analysieren.

  • Aufbewahrung und/oder Zugang zu deiner Geräte Informationen.

    Cookies, Geräte Bezeichnung oder andere Informationen, können aufbewahrt oder Zugang zu deinem Gerät erhalten, für den Grund, der oben angegeben wird.

  • Personalisierte Werbung und Inhalte, Messungen, Einblick in das Publikum und Produkt Entwicklung.

    Werbungen und Inhalte können personalisiert werden, basierend auf ein Profil. Mehr Daten können besser personalisierte Werbungen und Inhalte hinzufügen. Werbung und Inhalte können gezeigt und gemessen werden. Einblicke über das Publikum, welche die Werbung gesehen haben und den Inhalt, können abgeleitet werden. So wie Daten können genutzt werden, um es zu verbessern oder die Benutzer Erfahrung zu verbessern das System und die Software.

Wenn du “Ich stimme zu” klickst, erlaubst du uns, die Cookies zu benutzen die Geräte Bezeichnung, den Web oder ähnliche Technologien zu benutzen. Deine Settings, können in deinem Gerät bei deinem Browser geändert werden.

Für den bestimmten Zweck, berechtigten Interessen beruhen darauf, mehr als auf den Inhalt. Du kannst mehr darüber in unseren Privaten und Cookie Politik lesen.